Voltar ao catálogo

FENGYUN 1C DEB

AtivoSSO
NORAD 30183·DEBRIS·🇨🇳 China

Lançado May 10, 1999 de Taiyuan Satellite Launch Center

Loading…

Próximas Passagens (próximas 24 horas)

TLE

AtualizadoSource: Space-Track

Época: Sep 14, 2026, 09:19 UTC

1 30183U 99025UQ  26257.38862889  .00000521  00000-0  30102-3 0  9991
2 30183  98.7597 299.0741 0026556 188.4222 185.2130 14.13123252 10303

Acompanhe FENGYUN 1C DEB em tempo real com AllMySat

Download on the App Store